GW3570 Weather Reports


Display with metric or nautical units.
time (UTC)temp
F
wind
direction
speed
MPH
gust
MPH
rain 1hr
in
rain 24hr
in
rain mn
in
humidity
%
barometer
mb
20260905100544 74 305 0.0 0.0 0.00 0.00 0.00 93 1014.4
20260905100043 75 320 0.0 0.0 0.00 0.00 0.00 94 1014.4
20260905095537 75 52 0.0 0.0 0.00 0.00 0.00 94 1014.3
20260905095033 75 157 0.0 0.0 0.00 0.00 0.00 93 1014.3
20260905094528 75 237 0.0 0.0 0.00 0.00 0.00 93 1014.3
20260905094027 75 227 0.0 0.0 0.00 0.00 0.00 93 1014.3
20260905093516 75 235 0.0 0.0 0.00 0.00 0.00 93 1014.3
20260905093013 75 241 0.0 0.0 0.00 0.00 0.00 93 1014.5
20260905092513 75 146 0.0 0.0 0.00 0.00 0.00 93 1014.5
20260905092009 75 136 0.0 0.0 0.00 0.00 0.00 93 1014.4
20260905091507 75 160 0.0 0.0 0.00 0.00 0.00 93 1014.4
20260905091003 75 188 0.0 0.0 0.00 0.00 0.00 93 1014.4
20260905090457 75 209 0.0 0.0 0.00 0.00 0.00 92 1014.2
20260905085956 75 187 0.0 0.0 0.00 0.00 0.00 92 1014.2
20260905085456 75 24 0.0 0.0 0.00 0.00 0.00 92 1014.3
20260905084951 75 38 0.0 0.0 0.00 0.00 0.00 93 1014.1
20260905084451 75 68 0.0 0.0 0.00 0.00 0.00 93 1014.2
20260905083945 75 317 0.0 0.0 0.00 0.00 0.00 92 1014.1
20260905083442 75 304 0.0 0.0 0.00 0.00 0.00 92 1013.9
20260905082937 75 305 0.0 0.0 0.00 0.00 0.00 92 1014.1
20260905082433 76 308 0.0 0.0 0.00 0.00 0.00 92 1013.9
20260905081928 76 0 0.0 0.0 0.00 0.00 0.00 92 1013.8
20260905081427 75 229 0.0 0.0 0.00 0.00 0.00 92 1014.2
20260905080926 76 247 0.0 0.0 0.00 0.00 0.00 92 1014.0
20260905080421 76 140 0.0 0.0 0.00 0.00 0.00 93 1014.1
20260905075920 76 189 0.0 0.0 0.00 0.00 0.00 93 1014.1
20260905075415 76 232 0.0 0.0 0.00 0.00 0.00 92 1013.8
20260905074914 76 316 0.0 0.0 0.00 0.00 0.00 92 1014.1
20260905074409 76 318 0.0 0.0 0.00 0.00 0.00 92 1013.9
20260905073905 76 300 0.0 0.0 0.00 0.00 0.00 92 1014.1
20260905073400 76 289 0.0 0.0 0.00 0.00 0.00 92 1014.0
20260905072855 76 202 0.0 0.0 0.00 0.00 0.00 92 1013.9
20260905072350 77 247 0.0 0.0 0.00 0.00 0.00 92 1014.2
20260905071846 77 226 0.0 0.0 0.00 0.00 0.00 92 1014.1
20260905071337 76 341 0.0 0.0 0.00 0.00 0.00 92 1014.0
20260905070831 76 337 0.0 0.0 0.00 0.00 0.00 92 1014.3
20260905070328 77 298 0.0 0.0 0.00 0.00 0.00 91 1014.1
20260905065826 77 253 0.0 0.0 0.00 0.00 0.00 91 1014.2
20260905065325 76 258 0.0 0.0 0.00 0.00 0.00 92 1014.4
20260905064820 76 148 0.0 0.0 0.00 0.00 0.00 92 1014.2
20260905064317 76 280 0.0 0.0 0.00 0.00 0.00 92 1014.4
20260905063815 77 296 0.0 0.0 0.00 0.00 0.00 91 1014.1
20260905063311 77 130 0.0 0.0 0.00 0.00 0.00 91 1014.4
20260905062807 77 194 0.0 0.0 0.00 0.00 0.00 91 1014.3
20260905062307 77 129 0.0 0.0 0.00 0.00 0.00 91 1014.6
20260905061802 77 305 2.0 2.0 0.00 0.00 0.00 90 1014.2
20260905061256 77 101 0.0 0.0 0.00 0.00 0.00 90 1014.5
20260905060756 77 98 0.0 0.0 0.00 0.00 0.00 90 1014.3
20260905060253 77 110 0.0 0.0 0.00 0.00 0.00 90 1014.2
20260905055751 77 196 0.0 0.0 0.00 0.00 0.00 90 1014.0
20260905055246 77 262 0.0 0.0 0.00 0.00 0.00 89 1014.2
20260905054741 77 200 0.0 0.0 0.00 0.00 0.00 89 1014.3
20260905054238 77 149 0.0 0.0 0.00 0.00 0.00 89 1014.2
20260905053737 77 187 0.0 0.0 0.00 0.00 0.00 89 1014.1
20260905053232 77 203 0.0 0.0 0.00 0.00 0.00 89 1014.2
20260905052726 78 209 0.0 0.0 0.00 0.00 0.00 88 1014.0
20260905052221 78 213 0.0 0.0 0.00 0.00 0.00 88 1013.9
20260905051721 78 204 0.0 0.0 0.00 0.00 0.00 88 1014.0
20260905051218 78 160 0.0 0.0 0.00 0.00 0.00 88 1013.9
20260905050714 78 230 0.0 0.0 0.00 0.00 0.00 88 1013.9
20260905050211 78 228 0.0 0.0 0.00 0.00 0.00 87 1013.9
20260905045710 78 170 0.0 0.0 0.00 0.00 0.00 87 1013.9
20260905045206 78 174 0.0 0.0 0.00 0.00 0.00 87 1014.0
20260905044700 78 200 0.0 0.0 0.00 0.00 0.00 86 1014.1
20260905044155 79 212 0.0 0.0 0.00 0.00 0.00 85 1013.9
20260905043654 79 157 0.0 0.0 0.00 0.00 0.00 85 1014.2
20260905043149 79 164 0.0 0.0 0.00 0.00 0.00 85 1014.0
20260905042649 79 228 0.0 0.0 0.00 0.00 0.00 84 1014.2
20260905042148 79 242 0.0 0.0 0.00 0.00 0.00 83 1014.0
20260905041644 79 267 0.0 0.0 0.00 0.00 0.00 84 1014.2
20260905041139 79 226 0.0 0.0 0.00 0.00 0.00 84 1014.2
20260905040634 80 233 0.0 0.0 0.00 0.00 0.00 83 1014.3
20260905040132 80 243 0.0 0.0 0.00 0.00 0.00 81 1014.0
20260905035628 80 254 0.0 0.0 0.00 0.00 0.00 81 1014.1
20260905035119 80 239 0.0 0.0 0.00 0.00 0.00 81 1014.2
20260905034614 80 219 0.0 0.0 0.00 0.00 0.00 81 1014.2
20260905034108 80 232 0.0 0.0 0.00 0.00 0.00 80 1014.1
20260905033608 80 221 0.0 0.0 0.00 0.00 0.00 80 1014.1
20260905033103 81 205 0.0 0.0 0.00 0.00 0.00 79 1014.0
20260905032603 81 191 0.0 0.0 0.00 0.00 0.00 78 1014.2
20260905032058 81 196 0.0 0.0 0.00 0.00 0.00 78 1014.0
20260905031554 81 181 0.0 0.0 0.00 0.00 0.00 77 1014.0
20260905031054 81 212 0.0 0.0 0.00 0.00 0.00 76 1014.1
20260905030549 82 210 0.0 0.0 0.00 0.00 0.00 74 1014.0
20260905030043 82 202 0.0 0.0 0.00 0.00 0.00 76 1014.1
20260905025538 82 204 0.0 0.0 0.00 0.00 0.00 76 1013.8
20260905025035 82 146 0.0 0.0 0.00 0.00 0.00 76 1013.9
20260905024530 82 200 0.0 0.0 0.00 0.00 0.00 73 1013.9
20260905024025 82 221 0.0 0.0 0.00 0.00 0.00 73 1013.8
20260905023520 83 214 0.0 0.0 0.00 0.00 0.00 74 1013.9
20260905023015 83 236 0.0 0.0 0.00 0.00 0.00 73 1013.8
20260905022509 83 221 0.0 0.0 0.00 0.00 0.00 74 1013.7
20260905022005 83 177 0.0 0.0 0.00 0.00 0.00 75 1013.6
20260905021505 84 166 0.0 0.0 0.00 0.00 0.00 75 1013.8
20260905020959 84 154 0.0 0.0 0.00 0.00 0.00 74 1013.5
20260905020453 84 185 0.0 0.0 0.00 0.00 0.00 74 1013.6
20260905015948 84 152 0.0 0.0 0.00 0.00 0.00 73 1013.6
20260905015446 84 194 0.0 0.0 0.00 0.00 0.00 71 1013.5
20260905014944 85 261 0.0 0.0 0.00 0.00 0.00 69 1013.2
20260905014440 86 173 0.0 0.0 0.00 0.00 0.00 68 1013.2
20260905013935 86 125 0.0 0.0 0.00 0.00 0.00 69 1013.3
20260905013432 86 131 0.0 0.0 0.00 0.00 0.00 68 1013.4
20260905012927 86 159 0.0 0.0 0.00 0.00 0.00 67 1013.1
20260905012422 87 210 0.0 0.0 0.00 0.00 0.00 62 1013.2
20260905011919 87 140 0.0 0.0 0.00 0.00 0.00 63 1013.1
20260905011415 87 187 0.0 0.0 0.00 0.00 0.00 60 1012.9
20260905010909 87 223 0.0 0.0 0.00 0.00 0.00 58 1012.7
20260905010405 88 213 0.0 0.0 0.00 0.00 0.00 57 1012.8
20260905005900 88 161 0.0 0.0 0.00 0.00 0.00 56 1012.8
20260905005356 89 244 0.0 0.0 0.00 0.00 0.00 56 1012.8
20260905004851 89 209 0.0 0.0 0.00 0.00 0.00 55 1012.8
20260905004346 90 284 0.0 0.0 0.00 0.00 0.00 55 1012.7
20260905003841 91 292 0.0 0.0 0.00 0.00 0.00 54 1012.8
20260905003337 91 8 0.0 0.0 0.00 0.00 0.00 51 1012.5
20260905002832 92 339 1.0 1.0 0.00 0.00 0.00 51 1012.7
20260905002326 93 345 1.0 1.0 0.00 0.00 0.00 50 1012.4
20260905001821 93 270 0.0 0.0 0.00 0.00 0.00 50 1012.8
20260905001321 94 215 0.0 0.0 0.00 0.00 0.00 49 1012.7
20260905000816 95 207 0.0 0.0 0.00 0.00 0.00 48 1012.9
20260905000306 96 175 0.0 0.0 0.00 0.00 0.00 48 1012.7
20260904235801 96 128 1.0 2.0 0.00 0.00 0.00 44 1012.9
20260904235256 97 121 2.0 2.0 0.00 0.00 0.00 45 1012.8
20260904234751 97 115 1.0 1.0 0.00 0.00 0.00 44 1012.8
20260904234246 97 117 2.0 2.0 0.00 0.00 0.00 41 1012.6
20260904233742 98 129 0.0 0.0 0.00 0.00 0.00 42 1012.9
20260904233238 98 138 3.0 3.0 0.00 0.00 0.00 39 1012.8
20260904232734 98 119 2.0 3.0 0.00 0.00 0.00 39 1012.8
20260904232230 98 140 2.0 2.0 0.00 0.00 0.00 43 1012.6
20260904231726 98 129 2.0 2.0 0.00 0.00 0.00 42 1012.6
20260904231221 99 128 3.0 3.0 0.00 0.00 0.00 38 1012.7
20260904230721 98 159 7.0 7.0 0.00 0.00 0.00 37 1012.6
20260904230215 99 135 3.0 3.0 0.00 0.00 0.00 38 1012.7
20260904225714 99 102 2.0 2.0 0.00 0.00 0.00 40 1012.8
20260904225209 99 114 3.0 3.0 0.00 0.00 0.00 40 1012.9
20260904224708 99 114 4.0 5.0 0.00 0.00 0.00 39 1012.7
20260904224203 100 111 4.0 5.0 0.00 0.00 0.00 37 1013.0
20260904223702 100 105 4.0 6.0 0.00 0.00 0.00 39 1012.9
20260904223157 100 120 5.0 7.0 0.00 0.00 0.00 36 1012.9
20260904222653 100 128 3.0 3.0 0.00 0.00 0.00 36 1012.6
20260904222149 101 105 4.0 5.0 0.00 0.00 0.00 41 1012.6
20260904221648 101 102 3.0 3.0 0.00 0.00 0.00 37 1012.6
20260904221143 100 142 4.0 6.0 0.00 0.00 0.00 36 1012.6
20260904220638 100 125 4.0 5.0 0.00 0.00 0.00 37 1012.9
20260904220133 100 116 4.0 5.0 0.00 0.00 0.00 36 1012.8
20260904215627 102 102 3.0 3.0 0.00 0.00 0.00 34 1012.8
20260904215124 102 165 3.0 3.0 0.00 0.00 0.00 33 1012.9
20260904214624 102 135 2.0 2.0 0.00 0.00 0.00 33 1013.1
20260904214119 102 175 4.0 5.0 0.00 0.00 0.00 39 1013.2
20260904213617 102 165 2.0 3.0 0.00 0.00 0.00 33 1013.1
20260904213113 102 122 3.0 5.0 0.00 0.00 0.00 35 1012.9
20260904212608 102 195 2.0 2.0 0.00 0.00 0.00 33 1012.9
20260904212103 101 143 1.0 2.0 0.00 0.00 0.00 36 1013.1
20260904211603 101 101 3.0 3.0 0.00 0.00 0.00 41 1013.1
20260904211058 102 120 1.0 1.0 0.00 0.00 0.00 34 1013.1
20260904210557 102 218 1.0 2.0 0.00 0.00 0.00 33 1013.4
20260904210054 102 133 1.0 2.0 0.00 0.00 0.00 34 1013.4
20260904205549 102 151 3.0 3.0 0.00 0.00 0.00 35 1013.4
20260904205045 103 115 5.0 6.0 0.00 0.00 0.00 35 1013.7
20260904204541 102 151 1.0 2.0 0.00 0.00 0.00 34 1013.5
20260904204037 102 196 1.0 1.0 0.00 0.00 0.00 34 1013.6
20260904203532 101 129 2.0 3.0 0.00 0.00 0.00 35 1013.7
20260904203029 103 113 2.0 2.0 0.00 0.00 0.00 37 1013.7
20260904202525 103 154 2.0 2.0 0.00 0.00 0.00 33 1013.6
20260904202021 103 207 2.0 2.0 0.00 0.00 0.00 34 1013.7
20260904201516 103 194 1.0 1.0 0.00 0.00 0.00 34 1013.8
20260904201011 104 232 4.0 5.0 0.00 0.00 0.00 33 1013.6
20260904200509 103 181 1.0 1.0 0.00 0.00 0.00 34 1013.9
20260904200005 102 124 1.0 2.0 0.00 0.00 0.00 34 1014.0
20260904195503 102 161 3.0 3.0 0.00 0.00 0.00 34 1014.1
20260904195002 103 206 3.0 3.0 0.00 0.00 0.00 34 1014.2
20260904194457 102 205 1.0 2.0 0.00 0.00 0.00 34 1014.1
20260904193952 103 157 7.0 9.0 0.00 0.00 0.00 36 1014.4
20260904193447 102 126 2.0 2.0 0.00 0.00 0.00 34 1014.3
20260904192942 103 192 3.0 3.0 0.00 0.00 0.00 33 1014.3
20260904192437 103 166 1.0 2.0 0.00 0.00 0.00 34 1014.3
20260904191934 101 157 3.0 3.0 0.00 0.00 0.00 35 1014.4
20260904191430 103 71 3.0 3.0 0.00 0.00 0.00 35 1014.3
20260904190926 102 112 2.0 2.0 0.00 0.00 0.00 36 1014.5
20260904190426 102 121 2.0 3.0 0.00 0.00 0.00 37 1014.5
20260904185923 102 115 3.0 5.0 0.00 0.00 0.00 38 1014.7
20260904185418 102 152 5.0 5.0 0.00 0.00 0.00 37 1014.7
20260904184913 101 185 2.0 2.0 0.00 0.00 0.00 37 1014.8
20260904184408 101 215 3.0 3.0 0.00 0.00 0.00 39 1015.0
20260904183903 101 78 2.0 2.0 0.00 0.00 0.00 37 1014.9
20260904183358 101 161 0.0 1.0 0.00 0.00 0.00 38 1014.9
20260904182854 100 139 3.0 3.0 0.00 0.00 0.00 40 1015.1
20260904182348 100 152 4.0 5.0 0.00 0.00 0.00 40 1015.0
20260904181843 100 202 4.0 5.0 0.00 0.00 0.00 40 1015.0
20260904181338 100 296 3.0 5.0 0.00 0.00 0.00 38 1015.2
20260904180834 99 170 5.0 5.0 0.00 0.00 0.00 40 1015.2
20260904180329 100 127 5.0 5.0 0.00 0.00 0.00 41 1015.5
20260904175828 99 82 4.0 5.0 0.00 0.00 0.00 42 1015.1
20260904175326 99 187 3.0 3.0 0.00 0.00 0.00 43 1015.5
20260904174821 99 134 3.0 5.0 0.00 0.00 0.00 40 1015.8
20260904174317 99 202 0.0 1.0 0.00 0.00 0.00 41 1015.8
20260904173813 98 177 2.0 2.0 0.00 0.00 0.00 42 1015.7
20260904173308 98 150 5.0 6.0 0.00 0.00 0.00 42 1015.7
20260904172804 98 133 1.0 2.0 0.00 0.00 0.00 41 1015.9
20260904172305 98 148 4.0 5.0 0.00 0.00 0.00 42 1015.8
20260904171758 98 166 5.0 6.0 0.00 0.00 0.00 42 1015.9
20260904171253 97 109 3.0 5.0 0.00 0.00 0.00 44 1016.0
20260904170750 97 158 5.0 6.0 0.00 0.00 0.00 44 1015.9
20260904170246 97 149 1.0 2.0 0.00 0.00 0.00 44 1015.9
20260904165744 97 186 3.0 3.0 0.00 0.00 0.00 45 1015.9
20260904165239 97 200 5.0 6.0 0.00 0.00 0.00 47 1015.9
20260904164738 96 189 4.0 5.0 0.00 0.00 0.00 47 1016.1
20260904164234 97 147 6.0 7.0 0.00 0.00 0.00 47 1015.9
20260904163730 97 165 4.0 6.0 0.00 0.00 0.00 46 1016.2
20260904163225 96 189 0.0 1.0 0.00 0.00 0.00 47 1016.2
20260904162724 96 69 0.0 0.0 0.00 0.00 0.00 46 1016.6
20260904162219 95 158 7.0 7.0 0.00 0.00 0.00 47 1016.3
20260904161714 96 195 6.0 7.0 0.00 0.00 0.00 48 1016.1
20260904161204 95 119 4.0 5.0 0.00 0.00 0.00 50 1016.2
20260904160700 94 153 7.0 9.0 0.00 0.00 0.00 51 1016.0
20260904160155 95 143 4.0 5.0 0.00 0.00 0.00 49 1016.2
20260904155649 95 162 3.0 3.0 0.00 0.00 0.00 50 1016.2
20260904155148 95 151 3.0 5.0 0.00 0.00 0.00 51 1016.5
20260904154648 95 150 1.0 2.0 0.00 0.00 0.00 52 1016.4
20260904154147 94 89 0.0 1.0 0.00 0.00 0.00 52 1016.3
20260904153643 93 147 2.0 2.0 0.00 0.00 0.00 52 1016.3
20260904153138 93 158 2.0 2.0 0.00 0.00 0.00 54 1016.4
20260904152635 93 110 1.0 2.0 0.00 0.00 0.00 54 1016.5
20260904152130 92 194 1.0 1.0 0.00 0.00 0.00 55 1016.4
20260904151625 92 351 1.0 1.0 0.00 0.00 0.00 55 1016.4
20260904151123 92 180 2.0 2.0 0.00 0.00 0.00 55 1016.5
20260904150619 92 85 0.0 1.0 0.00 0.00 0.00 55 1016.5
20260904150114 91 153 1.0 1.0 0.00 0.00 0.00 57 1016.1
20260904145613 91 154 1.0 2.0 0.00 0.00 0.00 57 1016.3
20260904145108 92 234 2.0 2.0 0.00 0.00 0.00 56 1016.4
20260904144604 91 92 0.0 0.0 0.00 0.00 0.00 58 1016.3
20260904144059 90 111 0.0 0.0 0.00 0.00 0.00 59 1016.3
20260904143555 88 78 0.0 1.0 0.00 0.00 0.00 62 1016.5
20260904143052 88 158 1.0 1.0 0.00 0.00 0.00 63 1016.3
20260904142548 89 144 0.0 0.0 0.00 0.00 0.00 68 1016.6
20260904142043 88 179 0.0 0.0 0.00 0.00 0.00 62 1016.5
20260904141538 88 182 0.0 0.0 0.00 0.00 0.00 68 1016.3
20260904141033 87 189 0.0 0.0 0.00 0.00 0.00 63 1016.4
20260904140534 87 174 0.0 0.0 0.00 0.00 0.00 65 1016.4
20260904140028 87 239 0.0 0.0 0.00 0.00 0.00 64 1016.6
20260904135527 86 221 0.0 0.0 0.00 0.00 0.00 66 1016.6
20260904135024 87 90 0.0 0.0 0.00 0.00 0.00 65 1016.3
20260904134519 86 158 0.0 0.0 0.00 0.00 0.00 69 1016.4
20260904134013 85 158 0.0 0.0 0.00 0.00 0.00 70 1016.4
20260904133508 83 204 0.0 0.0 0.00 0.00 0.00 71 1016.5
20260904133004 81 171 0.0 0.0 0.00 0.00 0.00 75 1016.4
20260904132503 80 174 0.0 0.0 0.00 0.00 0.00 79 1016.4
20260904131958 79 160 0.0 0.0 0.00 0.00 0.00 79 1016.4
20260904131453 78 170 0.0 0.0 0.00 0.00 0.00 80 1016.7
20260904130949 78 260 0.0 0.0 0.00 0.00 0.00 82 1016.4
20260904130448 78 199 0.0 0.0 0.00 0.00 0.00 82 1016.4
20260904125943 77 205 0.0 0.0 0.00 0.00 0.00 83 1016.3
20260904125439 77 223 0.0 0.0 0.00 0.00 0.00 83 1016.5
20260904124938 77 171 0.0 0.0 0.00 0.00 0.00 83 1016.6
20260904124434 77 238 0.0 0.0 0.00 0.00 0.00 83 1016.3
20260904123930 76 214 0.0 0.0 0.00 0.00 0.00 84 1016.2
20260904123425 76 358 0.0 1.0 0.00 0.00 0.00 85 1016.3
20260904122920 75 351 1.0 1.0 0.00 0.00 0.00 87 1016.1
20260904122420 75 346 0.0 0.0 0.00 0.00 0.00 87 1016.3
20260904121914 75 248 0.0 0.0 0.00 0.00 0.00 87 1015.8
20260904121411 75 70 0.0 0.0 0.00 0.00 0.00 88 1016.0
20260904120907 74 153 0.0 0.0 0.00 0.00 0.00 88 1015.8
20260904120403 74 223 0.0 0.0 0.00 0.00 0.00 88 1015.8
20260904115858 75 289 0.0 0.0 0.00 0.00 0.00 88 1016.0
20260904115352 75 290 0.0 0.0 0.00 0.00 0.00 86 1015.8
20260904114846 75 325 0.0 0.0 0.00 0.00 0.00 86 1015.8
20260904114336 75 261 0.0 0.0 0.00 0.00 0.00 87 1015.9
20260904113831 76 102 0.0 0.0 0.00 0.00 0.00 87 1015.7
20260904113330 76 44 0.0 0.0 0.00 0.00 0.00 87 1015.6
20260904112825 75 334 0.0 0.0 0.00 0.00 0.00 86 1015.5
20260904112321 75 239 0.0 0.0 0.00 0.00 0.00 86 1015.3
20260904111816 75 249 0.0 0.0 0.00 0.00 0.00 86 1015.5
20260904111312 75 208 0.0 0.0 0.00 0.00 0.00 85 1015.3
20260904110808 75 326 0.0 0.0 0.00 0.00 0.00 85 1015.0
20260904110306 75 229 0.0 0.0 0.00 0.00 0.00 85 1015.5
20260904105801 75 330 0.0 0.0 0.00 0.00 0.00 86 1015.2
20260904105255 75 0 0.0 0.0 0.00 0.00 0.00 86 1015.5
20260904104751 76 293 0.0 0.0 0.00 0.00 0.00 86 1015.6
20260904104247 76 130 0.0 0.0 0.00 0.00 0.00 86 1015.2
20260904103744 76 120 0.0 0.0 0.00 0.00 0.00 85 1015.2
20260904103238 76 114 0.0 0.0 0.00 0.00 0.00 85 1015.3
20260904102734 76 275 0.0 0.0 0.00 0.00 0.00 86 1015.2
20260904102229 76 213 0.0 0.0 0.00 0.00 0.00 85 1015.1
20260904101726 76 215 0.0 0.0 0.00 0.00 0.00 85 1015.3
20260904101221 76 261 0.0 0.0 0.00 0.00 0.00 84 1015.0
20260904100717 77 168 0.0 0.0 0.00 0.00 0.00 83 1015.0